Time,TemperatureF,DewpointF,PressureIn,WindDirection,WindDirectionDegrees,WindSpeedMPH,WindSpeedGustMPH,Humidity,HourlyPrecipIn,Conditions,Clouds,dailyrainin,SoftwareType,DateUTC
2013-01-09 00:00:00,49.1,39.8,30.32,WNW,292,0.0,0.0,70,0.00,,OVC025,0.00,VWS V14.01,2013-01-09 05:00:00,
2013-01-09 00:02:00,49.1,39.8,30.32,WNW,292,0.0,0.0,70,0.00,,OVC025,0.00,VWS V14.01,2013-01-09 05:02:00,
2013-01-09 00:07:00,49.1,39.8,30.32,WNW,292,0.0,0.0,70,0.00,,OVC025,0.00,VWS V14.01,2013-01-09 05:07:00,
2013-01-09 00:12:00,49.1,39.8,30.32,WNW,292,0.0,0.0,70,0.00,,OVC025,0.00,VWS V14.01,2013-01-09 05:12:00,
2013-01-09 00:17:00,49.1,40.1,30.32,WNW,292,0.0,0.0,71,0.00,,OVC025,0.00,VWS V14.01,2013-01-09 05:17:00,
2013-01-09 00:22:00,49.1,39.8,30.32,WNW,292,0.0,0.0,70,0.00,,OVC025,0.00,VWS V14.01,2013-01-09 05:22:00,
2013-01-09 00:27:00,48.9,39.6,30.32,WNW,292,0.0,0.0,70,0.00,,OVC025,0.00,VWS V14.01,2013-01-09 05:27:00,
2013-01-09 00:32:00,48.9,39.6,30.32,WNW,292,0.0,0.0,70,0.00,,OVC025,0.00,VWS V14.01,2013-01-09 05:32:00,
2013-01-09 00:37:00,48.9,39.9,30.32,WNW,292,0.0,0.0,71,0.00,,OVC025,0.00,VWS V14.01,2013-01-09 05:37:00,
2013-01-09 00:42:00,48.9,39.6,30.32,WNW,292,0.0,0.0,70,0.00,,OVC025,0.00,VWS V14.01,2013-01-09 05:42:00,
2013-01-09 00:47:00,48.9,39.9,30.33,WNW,292,0.0,0.0,71,0.00,,OVC050,0.00,VWS V14.01,2013-01-09 05:47:00,
2013-01-09 00:52:00,48.8,39.8,30.33,WNW,292,0.0,0.0,71,0.00,,OVC050,0.00,VWS V14.01,2013-01-09 05:52:00,
2013-01-09 00:57:00,48.8,40.2,30.33,WNW,292,0.0,0.0,72,0.00,,OVC050,0.00,VWS V14.01,2013-01-09 05:57:00,
2013-01-09 01:02:00,48.8,39.8,30.33,WNW,292,0.0,0.0,71,0.00,,OVC050,0.00,VWS V14.01,2013-01-09 06:02:00,
2013-01-09 01:07:00,48.8,39.5,30.33,WNW,292,0.0,0.0,70,0.00,,OVC050,0.00,VWS V14.01,2013-01-09 06:07:00,
2013-01-09 01:12:00,48.8,39.8,30.33,WNW,292,0.0,0.0,71,0.00,,OVC050,0.00,VWS V14.01,2013-01-09 06:12:00,
2013-01-09 01:17:00,48.8,39.8,30.33,WNW,292,0.0,0.0,71,0.00,,OVC050,0.00,VWS V14.01,2013-01-09 06:17:00,
2013-01-09 01:22:00,48.8,39.8,30.33,WNW,292,0.0,0.0,71,0.00,,OVC050,0.00,VWS V14.01,2013-01-09 06:22:00,
2013-01-09 01:27:00,48.8,39.8,30.33,WNW,292,0.0,0.0,71,0.00,,OVC050,0.00,VWS V14.01,2013-01-09 06:27:00,
2013-01-09 01:32:00,48.9,40.3,30.33,WNW,292,0.0,0.0,72,0.00,,OVC050,0.00,VWS V14.01,2013-01-09 06:32:00,
2013-01-09 01:37:00,48.8,39.8,30.33,WNW,292,0.0,0.0,71,0.00,,OVC050,0.00,VWS V14.01,2013-01-09 06:37:00,
2013-01-09 01:42:00,48.8,40.2,30.33,WNW,292,0.0,0.0,72,0.00,,OVC050,0.00,VWS V14.01,2013-01-09 06:42:00,
2013-01-09 01:47:00,48.6,40.0,30.33,WNW,292,0.0,0.0,72,0.00,,OVC026,0.00,VWS V14.01,2013-01-09 06:47:00,
2013-01-09 01:52:00,48.6,40.0,30.33,WNW,292,0.0,0.0,72,0.00,,OVC026,0.00,VWS V14.01,2013-01-09 06:52:00,
2013-01-09 01:57:00,48.6,40.3,30.33,WNW,292,0.0,0.0,73,0.00,,OVC026,0.00,VWS V14.01,2013-01-09 06:57:00,
2013-01-09 02:02:00,48.6,40.7,30.33,WNW,292,0.0,0.0,74,0.00,,OVC026,0.00,VWS V14.01,2013-01-09 07:02:00,
2013-01-09 02:07:00,48.5,40.2,30.33,WNW,292,0.0,0.0,73,0.00,,OVC026,0.00,VWS V14.01,2013-01-09 07:07:00,
2013-01-09 02:12:00,48.3,40.1,30.33,WNW,292,0.0,0.0,73,0.00,,OVC026,0.00,VWS V14.01,2013-01-09 07:12:00,
2013-01-09 02:17:00,48.3,40.1,30.33,WNW,292,0.0,0.0,73,0.00,,OVC026,0.00,VWS V14.01,2013-01-09 07:17:00,
2013-01-09 02:22:00,48.3,40.4,30.33,WNW,292,0.0,0.0,74,0.00,,OVC026,0.00,VWS V14.01,2013-01-09 07:22:00,
2013-01-09 02:27:00,48.3,40.4,30.33,WNW,292,0.0,0.0,74,0.00,,OVC026,0.00,VWS V14.01,2013-01-09 07:27:00,
2013-01-09 02:32:00,48.3,40.1,30.34,WNW,292,0.0,0.0,73,0.00,,OVC026,0.00,VWS V14.01,2013-01-09 07:32:00,
2013-01-09 02:37:00,48.5,40.6,30.34,WNW,292,0.0,0.0,74,0.00,,OVC026,0.00,VWS V14.01,2013-01-09 07:37:00,
2013-01-09 02:42:00,48.5,40.6,30.34,WNW,292,0.0,0.0,74,0.00,,OVC026,0.00,VWS V14.01,2013-01-09 07:42:00,
2013-01-09 02:47:00,48.5,40.2,30.34,WNW,292,0.0,0.0,73,0.00,,OVC024,0.00,VWS V14.01,2013-01-09 07:47:00,
2013-01-09 02:52:00,48.5,40.6,30.34,WNW,292,0.0,0.0,74,0.00,,OVC024,0.00,VWS V14.01,2013-01-09 07:52:00,
2013-01-09 02:57:00,48.5,40.6,30.34,WNW,292,0.0,0.0,74,0.00,,OVC024,0.00,VWS V14.01,2013-01-09 07:57:00,
2013-01-09 03:02:00,48.5,40.6,30.34,WNW,292,0.0,0.0,74,0.00,,OVC024,0.00,VWS V14.01,2013-01-09 08:02:00,
2013-01-09 03:07:00,48.6,40.7,30.34,WNW,292,0.0,0.0,74,0.00,,OVC024,0.00,VWS V14.01,2013-01-09 08:07:00,
2013-01-09 03:12:00,48.6,40.7,30.34,WNW,292,0.0,0.0,74,0.00,,OVC024,0.00,VWS V14.01,2013-01-09 08:12:00,
2013-01-09 03:17:00,48.6,40.3,30.33,WNW,292,0.0,0.0,73,0.00,,OVC024,0.00,VWS V14.01,2013-01-09 08:17:00,
2013-01-09 03:24:00,48.6,40.7,30.33,North,0,0.0,0.0,74,0.00,,OVC024,0.00,VWS V14.01,2013-01-09 08:24:00,
2013-01-09 03:29:00,48.5,40.6,30.33,North,0,0.0,0.0,74,0.00,,OVC024,0.00,VWS V14.01,2013-01-09 08:29:00,
2013-01-09 03:34:00,48.2,40.3,30.32,North,0,0.0,0.0,74,0.00,,OVC024,0.00,VWS V14.01,2013-01-09 08:34:00,
2013-01-09 03:39:00,48.0,40.1,30.32,North,0,0.0,0.0,74,0.00,,OVC024,0.00,VWS V14.01,2013-01-09 08:39:00,
2013-01-09 03:44:00,47.9,40.4,30.32,North,0,0.0,0.0,75,0.00,,OVC024,0.00,VWS V14.01,2013-01-09 08:44:00,
2013-01-09 03:49:00,47.7,40.5,30.33,North,0,0.0,0.0,76,0.00,,OVC026,0.00,VWS V14.01,2013-01-09 08:49:00,
2013-01-09 03:54:00,47.7,40.5,30.33,North,0,0.0,0.0,76,0.00,,OVC026,0.00,VWS V14.01,2013-01-09 08:54:00,
2013-01-09 03:59:00,47.7,40.5,30.33,North,0,0.0,0.0,76,0.00,,OVC026,0.00,VWS V14.01,2013-01-09 08:59:00,
2013-01-09 04:04:00,47.9,41.0,30.33,North,0,0.0,0.0,77,0.00,,OVC026,0.00,VWS V14.01,2013-01-09 09:04:00,
2013-01-09 04:09:00,47.9,41.0,30.33,North,0,0.0,0.0,77,0.00,,OVC026,0.00,VWS V14.01,2013-01-09 09:09:00,
2013-01-09 04:14:00,48.0,40.8,30.33,North,0,0.0,0.0,76,0.00,,OVC026,0.00,VWS V14.01,2013-01-09 09:14:00,
2013-01-09 04:19:00,48.0,41.2,30.33,North,0,0.0,0.0,77,0.00,,OVC026,0.00,VWS V14.01,2013-01-09 09:19:00,
2013-01-09 04:24:00,48.0,41.2,30.33,North,0,0.0,0.0,77,0.00,,OVC026,0.00,VWS V14.01,2013-01-09 09:24:00,
2013-01-09 04:29:00,48.2,41.3,30.33,North,0,0.0,0.0,77,0.00,,OVC026,0.00,VWS V14.01,2013-01-09 09:29:00,
2013-01-09 04:34:00,48.2,41.0,30.33,North,0,0.0,0.0,76,0.00,,OVC026,0.00,VWS V14.01,2013-01-09 09:34:00,
2013-01-09 04:39:00,48.2,41.3,30.33,North,0,0.0,0.0,77,0.00,,OVC026,0.00,VWS V14.01,2013-01-09 09:39:00,
2013-01-09 04:44:00,48.3,41.4,30.33,North,0,0.0,0.0,77,0.00,,OVC026,0.00,VWS V14.01,2013-01-09 09:44:00,
2013-01-09 04:49:00,48.3,41.4,30.32,North,0,0.0,0.0,77,0.00,,OVC026,0.00,VWS V14.01,2013-01-09 09:49:00,
2013-01-09 04:54:00,48.5,41.3,30.32,North,0,0.0,0.0,76,0.00,,OVC026,0.00,VWS V14.01,2013-01-09 09:54:00,
2013-01-09 04:59:00,48.5,41.3,30.32,North,0,0.0,0.0,76,0.00,,OVC026,0.00,VWS V14.01,2013-01-09 09:59:00,
2013-01-09 05:04:00,48.5,41.3,30.32,North,0,0.0,0.0,76,0.00,,OVC026,0.00,VWS V14.01,2013-01-09 10:04:00,
2013-01-09 05:09:00,48.6,41.4,30.32,North,0,0.0,0.0,76,0.00,,OVC026,0.00,VWS V14.01,2013-01-09 10:09:00,
2013-01-09 05:14:00,48.6,41.4,30.32,North,0,0.0,0.0,76,0.00,,OVC026,0.00,VWS V14.01,2013-01-09 10:14:00,
2013-01-09 05:19:00,48.6,41.4,30.31,North,0,0.0,0.0,76,0.00,,OVC026,0.00,VWS V14.01,2013-01-09 10:19:00,
2013-01-09 05:24:00,48.8,41.6,30.31,North,0,0.0,0.0,76,0.00,,OVC026,0.00,VWS V14.01,2013-01-09 10:24:00,
2013-01-09 05:29:00,48.8,41.2,30.31,North,0,0.0,0.0,75,0.00,,OVC026,0.00,VWS V14.01,2013-01-09 10:29:00,
2013-01-09 05:34:00,48.9,41.3,30.32,North,0,0.0,0.0,75,0.00,,OVC026,0.00,VWS V14.01,2013-01-09 10:34:00,
2013-01-09 05:39:00,49.1,41.5,30.32,North,0,0.0,0.0,75,0.00,,OVC026,0.00,VWS V14.01,2013-01-09 10:39:00,
2013-01-09 05:44:00,49.1,41.5,30.32,North,0,0.0,0.0,75,0.00,,OVC026,0.00,VWS V14.01,2013-01-09 10:44:00,
2013-01-09 05:49:00,49.1,41.5,30.32,North,0,0.0,0.0,75,0.00,,OVC024,0.00,VWS V14.01,2013-01-09 10:49:00,
2013-01-09 05:54:00,49.1,41.9,30.32,North,0,0.0,0.0,76,0.00,,OVC024,0.00,VWS V14.01,2013-01-09 10:54:00,
2013-01-09 05:59:00,49.1,41.9,30.32,North,0,0.0,0.0,76,0.00,,OVC024,0.00,VWS V14.01,2013-01-09 10:59:00,
2013-01-09 06:04:00,49.1,41.9,30.33,North,0,0.0,0.0,76,0.00,,OVC024,0.00,VWS V14.01,2013-01-09 11:04:00,
2013-01-09 06:09:00,49.2,42.0,30.33,North,0,0.0,0.0,76,0.00,,OVC024,0.00,VWS V14.01,2013-01-09 11:09:00,
2013-01-09 06:14:00,49.2,41.6,30.33,North,0,0.0,0.0,75,0.00,,OVC024,0.00,VWS V14.01,2013-01-09 11:14:00,
2013-01-09 06:19:00,49.2,41.6,30.33,North,0,0.0,0.0,75,0.00,,OVC024,0.00,VWS V14.01,2013-01-09 11:19:00,
2013-01-09 06:24:00,49.2,42.0,30.33,North,0,0.0,0.0,76,0.00,,OVC024,0.00,VWS V14.01,2013-01-09 11:24:00,
2013-01-09 06:29:00,49.4,42.5,30.33,North,0,0.0,0.0,77,0.00,,OVC024,0.00,VWS V14.01,2013-01-09 11:29:00,
2013-01-09 06:34:00,49.4,42.5,30.33,North,0,0.0,0.0,77,0.00,,OVC024,0.00,VWS V14.01,2013-01-09 11:34:00,
2013-01-09 06:38:00,49.4,43.2,30.33,North,0,0.0,0.0,79,0.00,,OVC024,0.00,VWS V14.01,2013-01-09 11:38:00,
2013-01-09 06:43:00,49.2,42.3,30.33,North,0,0.0,0.0,77,0.00,,OVC024,0.00,VWS V14.01,2013-01-09 11:43:00,
2013-01-09 06:49:00,49.2,42.3,30.33,North,0,0.0,0.0,77,0.00,,OVC031,0.00,VWS V14.01,2013-01-09 11:49:00,
2013-01-09 06:54:00,49.2,42.6,30.33,North,0,0.0,0.0,78,0.00,,OVC031,0.00,VWS V14.01,2013-01-09 11:54:00,
2013-01-09 06:59:00,49.1,42.5,30.33,North,0,0.0,0.0,78,0.00,,OVC031,0.00,VWS V14.01,2013-01-09 11:59:00,
2013-01-09 07:04:00,49.1,42.2,30.34,North,0,0.0,0.0,77,0.00,,OVC031,0.00,VWS V14.01,2013-01-09 12:04:00,
2013-01-09 07:09:00,48.9,42.3,30.34,North,0,0.0,0.0,78,0.00,,OVC031,0.00,VWS V14.01,2013-01-09 12:09:00,
2013-01-09 07:14:00,48.9,42.0,30.34,North,0,0.0,0.0,77,0.00,,OVC031,0.00,VWS V14.01,2013-01-09 12:14:00,
2013-01-09 07:19:00,48.9,42.0,30.35,North,0,0.0,0.0,77,0.00,,OVC031,0.00,VWS V14.01,2013-01-09 12:19:00,
2013-01-09 07:24:00,48.9,42.0,30.35,North,0,0.0,0.0,77,0.00,,OVC031,0.00,VWS V14.01,2013-01-09 12:24:00,
2013-01-09 07:29:00,48.9,42.0,30.35,North,0,0.0,0.0,77,0.00,,OVC031,0.00,VWS V14.01,2013-01-09 12:29:00,
2013-01-09 07:34:00,48.9,42.3,30.35,North,0,0.0,0.0,78,0.00,,OVC031,0.00,VWS V14.01,2013-01-09 12:34:00,
2013-01-09 07:39:00,48.9,42.3,30.35,North,0,0.0,0.0,78,0.00,,OVC031,0.00,VWS V14.01,2013-01-09 12:39:00,
2013-01-09 07:44:00,48.9,42.7,30.35,North,0,0.0,0.0,79,0.00,,OVC031,0.00,VWS V14.01,2013-01-09 12:44:00,
2013-01-09 07:49:00,48.9,42.3,30.36,North,0,0.0,0.0,78,0.00,,OVC031,0.00,VWS V14.01,2013-01-09 12:49:00,
2013-01-09 07:54:00,48.9,42.3,30.36,North,0,0.0,0.0,78,0.00,,OVC031,0.00,VWS V14.01,2013-01-09 12:54:00,
2013-01-09 07:59:00,48.9,42.0,30.36,North,0,0.0,0.0,77,0.00,,OVC031,0.00,VWS V14.01,2013-01-09 12:59:00,
2013-01-09 08:04:00,48.9,42.3,30.36,North,0,0.0,0.0,78,0.00,,OVC044,0.00,VWS V14.01,2013-01-09 13:04:00,
2013-01-09 08:09:00,48.9,42.3,30.36,North,0,0.0,0.0,78,0.00,,OVC044,0.00,VWS V14.01,2013-01-09 13:09:00,
2013-01-09 08:14:00,49.1,42.9,30.36,North,0,0.0,0.0,79,0.00,,OVC044,0.00,VWS V14.01,2013-01-09 13:14:00,
2013-01-09 08:19:00,49.1,42.9,30.37,North,0,0.0,0.0,79,0.00,,OVC044,0.00,VWS V14.01,2013-01-09 13:19:00,
2013-01-09 08:24:00,49.2,42.6,30.37,North,0,0.0,0.0,78,0.00,,OVC044,0.00,VWS V14.01,2013-01-09 13:24:00,
2013-01-09 08:29:00,49.5,42.9,30.37,North,0,0.0,0.0,78,0.00,,OVC044,0.00,VWS V14.01,2013-01-09 13:29:00,
2013-01-09 08:34:00,49.6,43.4,30.38,North,0,0.0,0.0,79,0.00,,OVC044,0.00,VWS V14.01,2013-01-09 13:34:00,
2013-01-09 08:39:00,49.8,43.2,30.38,North,0,0.0,0.0,78,0.00,,OVC044,0.00,VWS V14.01,2013-01-09 13:39:00,
2013-01-09 08:44:00,50.1,43.2,30.38,North,0,0.0,0.0,77,0.00,,OVC044,0.00,VWS V14.01,2013-01-09 13:44:00,
2013-01-09 08:49:00,50.5,43.9,30.38,North,0,0.0,0.0,78,0.00,,OVC044,0.00,VWS V14.01,2013-01-09 13:49:00,
2013-01-09 08:54:00,50.8,44.5,30.38,North,0,0.0,0.0,79,0.00,,OVC044,0.00,VWS V14.01,2013-01-09 13:54:00,
2013-01-09 08:59:00,51.0,44.0,30.38,North,0,0.0,0.0,77,0.00,,OVC044,0.00,VWS V14.01,2013-01-09 13:59:00,
2013-01-09 09:04:00,51.3,44.0,30.39,North,0,0.0,0.0,76,0.00,,OVC044,0.00,VWS V14.01,2013-01-09 14:04:00,
2013-01-09 09:09:00,51.6,44.0,30.39,North,0,0.0,0.0,75,0.00,,OVC044,0.00,VWS V14.01,2013-01-09 14:09:00,
2013-01-09 09:14:00,51.9,43.5,30.39,North,0,0.0,0.0,73,0.00,,OVC044,0.00,VWS V14.01,2013-01-09 14:14:00,
2013-01-09 09:19:00,52.3,43.9,30.39,North,0,0.0,0.0,73,0.00,,OVC044,0.00,VWS V14.01,2013-01-09 14:19:00,
2013-01-09 09:24:00,52.5,43.8,30.39,North,0,0.0,0.0,72,0.00,,OVC044,0.00,VWS V14.01,2013-01-09 14:24:00,
2013-01-09 09:29:00,52.8,44.0,30.39,North,0,0.0,0.0,72,0.00,,OVC044,0.00,VWS V14.01,2013-01-09 14:29:00,
2013-01-09 09:34:00,52.9,44.1,30.39,North,0,0.0,0.0,72,0.00,,OVC044,0.00,VWS V14.01,2013-01-09 14:34:00,
2013-01-09 09:39:00,53.1,44.0,30.39,North,0,0.0,0.0,71,0.00,,OVC044,0.00,VWS V14.01,2013-01-09 14:39:00,
2013-01-09 09:44:00,53.2,44.0,30.39,North,0,0.0,0.0,71,0.00,,OVC044,0.00,VWS V14.01,2013-01-09 14:44:00,
2013-01-09 09:49:00,53.3,44.5,30.40,North,0,0.0,0.0,72,0.00,,OVC048,0.00,VWS V14.01,2013-01-09 14:49:00,
2013-01-09 09:54:00,53.6,44.4,30.40,North,0,0.0,0.0,71,0.00,,OVC048,0.00,VWS V14.01,2013-01-09 14:54:00,
2013-01-09 09:59:00,54.1,44.5,30.40,North,0,0.0,0.0,70,0.00,,OVC048,0.00,VWS V14.01,2013-01-09 14:59:00,
2013-01-09 10:04:00,54.5,44.9,30.39,SE,138,0.0,1.0,70,0.00,,OVC048,0.00,VWS V14.01,2013-01-09 15:04:00,
2013-01-09 10:09:00,55.4,45.4,30.39,SE,138,0.0,2.0,69,0.00,,OVC048,0.00,VWS V14.01,2013-01-09 15:09:00,
2013-01-09 10:14:00,56.2,45.4,30.39,ESE,119,0.0,2.0,67,0.00,,OVC048,0.00,VWS V14.01,2013-01-09 15:14:00,
2013-01-09 10:19:00,56.6,45.8,30.39,East,94,0.0,2.0,67,0.00,,OVC048,0.00,VWS V14.01,2013-01-09 15:19:00,
2013-01-09 10:24:00,57.0,46.2,30.39,East,94,0.0,0.0,67,0.00,,OVC048,0.00,VWS V14.01,2013-01-09 15:24:00,
2013-01-09 10:29:00,57.6,46.3,30.39,East,101,0.0,1.0,66,0.00,,OVC048,0.00,VWS V14.01,2013-01-09 15:29:00,
2013-01-09 10:34:00,58.3,47.4,30.39,East,101,0.0,1.0,67,0.00,,OVC048,0.00,VWS V14.01,2013-01-09 15:34:00,
2013-01-09 10:39:00,58.7,47.8,30.39,East,101,0.0,0.0,67,0.00,,OVC048,0.00,VWS V14.01,2013-01-09 15:39:00,
2013-01-09 10:44:00,59.0,48.5,30.39,East,101,0.0,1.0,68,0.00,,OVC048,0.00,VWS V14.01,2013-01-09 15:44:00,
2013-01-09 10:49:00,59.3,48.0,30.38,ESE,115,1.0,3.0,66,0.00,,OVC048,0.00,VWS V14.01,2013-01-09 15:49:00,
2013-01-09 10:54:00,59.6,48.2,30.38,ESE,121,0.0,3.0,66,0.00,,OVC048,0.00,VWS V14.01,2013-01-09 15:54:00,
2013-01-09 10:59:00,59.8,48.4,30.38,ESE,121,0.0,1.0,66,0.00,,OVC048,0.00,VWS V14.01,2013-01-09 15:59:00,
2013-01-09 11:04:00,60.1,49.1,30.38,South,188,0.0,4.0,67,0.00,,OVC048,0.00,VWS V14.01,2013-01-09 16:04:00,
2013-01-09 11:09:00,60.4,49.0,30.38,South,188,0.0,0.0,66,0.00,,OVC048,0.00,VWS V14.01,2013-01-09 16:09:00,
2013-01-09 11:14:00,60.7,48.9,30.38,South,188,0.0,0.0,65,0.00,,OVC048,0.00,VWS V14.01,2013-01-09 16:14:00,
2013-01-09 11:18:00,61.3,49.5,30.38,SW,216,0.0,3.0,65,0.00,,OVC048,0.00,VWS V14.01,2013-01-09 16:18:00,
2013-01-09 11:23:00,61.5,49.6,30.38,SW,219,0.0,1.0,65,0.00,,OVC048,0.00,VWS V14.01,2013-01-09 16:23:00,
2013-01-09 11:28:00,61.8,49.5,30.38,SW,219,0.0,1.0,64,0.00,,OVC048,0.00,VWS V14.01,2013-01-09 16:28:00,
2013-01-09 11:33:00,62.1,49.8,30.37,SW,219,0.0,1.0,64,0.00,,OVC048,0.00,VWS V14.01,2013-01-09 16:33:00,
2013-01-09 11:38:00,62.3,50.0,30.37,SW,214,0.0,0.0,64,0.00,,OVC048,0.00,VWS V14.01,2013-01-09 16:38:00,
2013-01-09 11:43:00,62.4,50.1,30.37,SW,214,0.0,0.0,64,0.00,,OVC048,0.00,VWS V14.01,2013-01-09 16:43:00,
2013-01-09 11:48:00,62.6,50.3,30.36,SW,214,1.0,1.0,64,0.00,,CLR,0.00,VWS V14.01,2013-01-09 16:48:00,
2013-01-09 11:53:00,62.9,50.5,30.36,WSW,240,0.0,2.0,64,0.00,,CLR,0.00,VWS V14.01,2013-01-09 16:53:00,
2013-01-09 11:58:00,63.1,50.3,30.36,WNW,298,0.0,4.0,63,0.00,,CLR,0.00,VWS V14.01,2013-01-09 16:58:00,
2013-01-09 12:03:00,63.2,50.4,30.35,WNW,298,0.0,0.0,63,0.00,,CLR,0.00,VWS V14.01,2013-01-09 17:03:00,
2013-01-09 12:08:00,63.4,50.2,30.35,WNW,298,0.0,0.0,62,0.00,,CLR,0.00,VWS V14.01,2013-01-09 17:08:00,
2013-01-09 12:13:00,63.5,50.3,30.35,WNW,298,0.0,0.0,62,0.00,,CLR,0.00,VWS V14.01,2013-01-09 17:13:00,
2013-01-09 12:18:00,63.7,50.9,30.34,NNE,19,0.0,0.0,63,0.00,,CLR,0.00,VWS V14.01,2013-01-09 17:18:00,
2013-01-09 12:23:00,63.7,50.9,30.34,NNW,345,0.0,1.0,63,0.00,,CLR,0.00,VWS V14.01,2013-01-09 17:23:00,
2013-01-09 12:28:00,64.0,50.7,30.34,NNW,345,0.0,2.0,62,0.00,,CLR,0.00,VWS V14.01,2013-01-09 17:28:00,
2013-01-09 12:33:00,64.2,50.9,30.33,NW,323,0.0,0.0,62,0.00,,CLR,0.00,VWS V14.01,2013-01-09 17:33:00,
2013-01-09 12:38:00,64.2,50.9,30.33,NW,323,0.0,1.0,62,0.00,,CLR,0.00,VWS V14.01,2013-01-09 17:38:00,
2013-01-09 12:43:00,64.2,50.9,30.33,NW,323,0.0,0.0,62,0.00,,CLR,0.00,VWS V14.01,2013-01-09 17:43:00,
2013-01-09 12:48:00,64.2,50.9,30.33,NW,323,0.0,0.0,62,0.00,,CLR,0.00,VWS V14.01,2013-01-09 17:48:00,
2013-01-09 12:53:00,64.3,51.5,30.33,NW,323,0.0,0.0,63,0.00,,CLR,0.00,VWS V14.01,2013-01-09 17:53:00,
2013-01-09 12:58:00,64.7,51.4,30.33,NW,323,0.0,1.0,62,0.00,,CLR,0.00,VWS V14.01,2013-01-09 17:58:00,
2013-01-09 13:03:00,65.0,51.2,30.32,WNW,301,0.0,3.0,61,0.00,,CLR,0.00,VWS V14.01,2013-01-09 18:03:00,
2013-01-09 13:08:00,64.8,51.0,30.32,WNW,301,0.0,0.0,61,0.00,,CLR,0.00,VWS V14.01,2013-01-09 18:08:00,
2013-01-09 13:13:00,64.8,51.5,30.32,WNW,301,0.0,1.0,62,0.00,,CLR,0.00,VWS V14.01,2013-01-09 18:13:00,
2013-01-09 13:18:00,65.0,51.7,30.32,WNW,301,0.0,0.0,62,0.00,,CLR,0.00,VWS V14.01,2013-01-09 18:18:00,
2013-01-09 13:23:00,65.0,51.2,30.32,NW,320,0.0,1.0,61,0.00,,CLR,0.00,VWS V14.01,2013-01-09 18:23:00,
2013-01-09 13:28:00,65.2,51.9,30.32,NW,320,1.0,1.0,62,0.00,,CLR,0.00,VWS V14.01,2013-01-09 18:28:00,
2013-01-09 13:33:00,65.5,51.7,30.31,NW,320,0.0,0.0,61,0.00,,CLR,0.00,VWS V14.01,2013-01-09 18:33:00,
2013-01-09 13:38:00,65.6,51.8,30.31,NW,320,0.0,1.0,61,0.00,,CLR,0.00,VWS V14.01,2013-01-09 18:38:00,
2013-01-09 13:41:00,65.6,51.4,30.31,NW,320,0.0,0.0,60,0.00,,CLR,0.00,VWS V14.01,2013-01-09 18:41:00,
2013-01-09 13:44:00,65.5,51.7,30.31,NW,320,0.0,0.0,61,0.00,,CLR,0.00,VWS V14.01,2013-01-09 18:44:00,
2013-01-09 13:45:00,65.5,51.7,30.31,NW,320,0.0,0.0,61,0.00,,CLR,0.00,VWS V14.01,2013-01-09 18:45:00,
2013-01-09 13:48:00,65.5,51.7,30.31,WNW,290,0.0,1.0,61,0.00,,CLR,0.00,VWS V14.01,2013-01-09 18:48:00,
2013-01-09 13:53:00,65.5,51.7,30.31,WNW,290,0.0,0.0,61,0.00,,CLR,0.00,VWS V14.01,2013-01-09 18:53:00,
2013-01-09 13:58:00,65.6,51.8,30.31,WNW,298,0.0,0.0,61,0.00,,CLR,0.00,VWS V14.01,2013-01-09 18:58:00,
2013-01-09 14:03:00,65.6,51.8,30.31,WNW,298,0.0,0.0,61,0.00,,CLR,0.00,VWS V14.01,2013-01-09 19:03:00,
2013-01-09 14:08:00,65.5,51.7,30.31,WNW,298,0.0,0.0,61,0.00,,CLR,0.00,VWS V14.01,2013-01-09 19:08:00,
2013-01-09 14:13:00,65.2,51.4,30.31,WNW,298,0.0,1.0,61,0.00,,CLR,0.00,VWS V14.01,2013-01-09 19:13:00,
2013-01-09 14:18:00,65.0,51.2,30.31,WNW,298,0.0,0.0,61,0.00,,CLR,0.00,VWS V14.01,2013-01-09 19:18:00,
2013-01-09 14:23:00,65.0,51.7,30.31,WNW,298,0.0,0.0,62,0.00,,CLR,0.00,VWS V14.01,2013-01-09 19:23:00,
2013-01-09 14:28:00,65.0,52.1,30.31,WNW,298,0.0,0.0,63,0.00,,CLR,0.00,VWS V14.01,2013-01-09 19:28:00,
2013-01-09 14:33:00,64.8,51.9,30.31,WNW,298,0.0,0.0,63,0.00,,CLR,0.00,VWS V14.01,2013-01-09 19:33:00,
2013-01-09 14:38:00,64.8,51.9,30.31,WNW,298,0.0,0.0,63,0.00,,CLR,0.00,VWS V14.01,2013-01-09 19:38:00,
2013-01-09 14:43:00,64.7,52.3,30.31,WNW,298,0.0,0.0,64,0.00,,CLR,0.00,VWS V14.01,2013-01-09 19:43:00,
2013-01-09 14:48:00,64.5,52.1,30.32,WNW,298,0.0,0.0,64,0.00,,CLR,0.00,VWS V14.01,2013-01-09 19:48:00,
2013-01-09 14:53:00,64.3,52.3,30.32,WNW,298,0.0,0.0,65,0.00,,CLR,0.00,VWS V14.01,2013-01-09 19:53:00,
2013-01-09 14:58:00,64.2,52.2,30.32,WNW,298,0.0,0.0,65,0.00,,CLR,0.00,VWS V14.01,2013-01-09 19:58:00,
2013-01-09 15:03:00,64.2,52.2,30.31,WNW,298,0.0,0.0,65,0.00,,CLR,0.00,VWS V14.01,2013-01-09 20:03:00,
2013-01-09 15:08:00,64.0,52.0,30.31,WNW,298,0.0,0.0,65,0.00,,CLR,0.00,VWS V14.01,2013-01-09 20:08:00,
2013-01-09 15:13:00,64.0,52.8,30.31,WNW,298,0.0,0.0,67,0.00,,CLR,0.00,VWS V14.01,2013-01-09 20:13:00,
2013-01-09 15:18:00,63.9,52.7,30.31,WNW,298,0.0,0.0,67,0.00,,CLR,0.00,VWS V14.01,2013-01-09 20:18:00,
2013-01-09 15:23:00,63.7,52.5,30.31,WNW,298,0.0,0.0,67,0.00,,CLR,0.00,VWS V14.01,2013-01-09 20:23:00,
2013-01-09 15:28:00,63.5,52.4,30.31,WNW,298,0.0,0.0,67,0.00,,CLR,0.00,VWS V14.01,2013-01-09 20:28:00,
2013-01-09 15:33:00,63.4,52.7,30.31,WNW,298,0.0,0.0,68,0.00,,CLR,0.00,VWS V14.01,2013-01-09 20:33:00,
2013-01-09 15:38:00,63.4,52.3,30.31,WNW,298,0.0,0.0,67,0.00,,CLR,0.00,VWS V14.01,2013-01-09 20:38:00,
2013-01-09 15:43:00,63.2,52.1,30.31,WNW,298,0.0,0.0,67,0.00,,CLR,0.00,VWS V14.01,2013-01-09 20:43:00,
2013-01-09 15:48:00,63.1,52.4,30.32,WNW,298,0.0,0.0,68,0.00,,CLR,0.00,VWS V14.01,2013-01-09 20:48:00,
2013-01-09 15:53:00,63.1,52.4,30.32,WNW,298,0.0,0.0,68,0.00,,CLR,0.00,VWS V14.01,2013-01-09 20:53:00,
2013-01-09 15:58:00,63.1,52.8,30.32,WNW,298,0.0,0.0,69,0.00,,CLR,0.00,VWS V14.01,2013-01-09 20:58:00,
2013-01-09 16:03:00,62.9,53.0,30.32,WNW,298,0.0,0.0,70,0.00,,CLR,0.00,VWS V14.01,2013-01-09 21:03:00,
2013-01-09 16:08:00,62.9,52.6,30.32,WNW,298,0.0,0.0,69,0.00,,CLR,0.00,VWS V14.01,2013-01-09 21:08:00,
2013-01-09 16:13:00,62.7,52.4,30.32,WNW,298,0.0,0.0,69,0.00,,CLR,0.00,VWS V14.01,2013-01-09 21:13:00,
2013-01-09 16:18:00,62.7,52.4,30.32,WNW,298,0.0,0.0,69,0.00,,CLR,0.00,VWS V14.01,2013-01-09 21:18:00,
2013-01-09 16:23:00,62.6,52.7,30.32,WNW,298,0.0,0.0,70,0.00,,CLR,0.00,VWS V14.01,2013-01-09 21:23:00,
2013-01-09 16:28:00,62.6,52.7,30.32,WNW,298,0.0,0.0,70,0.00,,CLR,0.00,VWS V14.01,2013-01-09 21:28:00,
2013-01-09 16:33:00,62.4,52.5,30.32,WNW,298,0.0,0.0,70,0.00,,CLR,0.00,VWS V14.01,2013-01-09 21:33:00,
2013-01-09 16:38:00,62.3,52.4,30.32,WNW,298,0.0,0.0,70,0.00,,CLR,0.00,VWS V14.01,2013-01-09 21:38:00,
2013-01-09 16:43:00,62.1,52.2,30.32,WNW,298,0.0,0.0,70,0.00,,CLR,0.00,VWS V14.01,2013-01-09 21:43:00,
2013-01-09 16:48:00,62.0,52.1,30.32,WNW,298,0.0,0.0,70,0.00,,FEW120,0.00,VWS V14.01,2013-01-09 21:48:00,
2013-01-09 16:53:00,61.8,52.7,30.32,WNW,298,0.0,0.0,72,0.00,,FEW120,0.00,VWS V14.01,2013-01-09 21:53:00,
2013-01-09 16:58:00,61.5,52.4,30.32,WNW,298,0.0,0.0,72,0.00,,FEW120,0.00,VWS V14.01,2013-01-09 21:58:00,
2013-01-09 17:03:00,61.3,52.6,30.33,WNW,298,0.0,0.0,73,0.00,,FEW120,0.00,VWS V14.01,2013-01-09 22:03:00,
2013-01-09 17:08:00,61.0,52.3,30.33,WNW,298,0.0,0.0,73,0.00,,FEW120,0.00,VWS V14.01,2013-01-09 22:08:00,
2013-01-09 17:13:00,60.9,52.2,30.33,WNW,298,0.0,0.0,73,0.00,,FEW120,0.00,VWS V14.01,2013-01-09 22:13:00,
2013-01-09 17:18:00,60.7,52.4,30.33,WNW,298,0.0,0.0,74,0.00,,FEW120,0.00,VWS V14.01,2013-01-09 22:18:00,
2013-01-09 17:23:00,60.5,52.2,30.33,WNW,298,0.0,0.0,74,0.00,,FEW120,0.00,VWS V14.01,2013-01-09 22:23:00,
2013-01-09 17:28:00,60.4,52.1,30.33,WNW,298,0.0,0.0,74,0.00,,FEW120,0.00,VWS V14.01,2013-01-09 22:28:00,
2013-01-09 17:33:00,60.2,51.9,30.33,WNW,298,0.0,0.0,74,0.00,,FEW120,0.00,VWS V14.01,2013-01-09 22:33:00,
2013-01-09 17:38:00,60.1,52.2,30.33,WNW,298,0.0,0.0,75,0.00,,FEW120,0.00,VWS V14.01,2013-01-09 22:38:00,
2013-01-09 17:43:00,59.8,52.2,30.33,WNW,298,0.0,0.0,76,0.00,,FEW120,0.00,VWS V14.01,2013-01-09 22:43:00,
2013-01-09 17:48:00,59.6,52.0,30.33,WNW,298,0.0,0.0,76,0.00,,CLR,0.00,VWS V14.01,2013-01-09 22:48:00,
2013-01-09 17:53:00,59.3,51.8,30.33,WNW,298,0.0,0.0,76,0.00,,CLR,0.00,VWS V14.01,2013-01-09 22:53:00,
2013-01-09 17:58:00,59.0,51.8,30.33,WNW,298,0.0,0.0,77,0.00,,CLR,0.00,VWS V14.01,2013-01-09 22:58:00,
2013-01-09 18:03:00,58.9,52.1,30.33,WNW,298,0.0,0.0,78,0.00,,CLR,0.00,VWS V14.01,2013-01-09 23:03:00,
2013-01-09 18:08:00,58.7,51.9,30.33,WNW,298,0.0,0.0,78,0.00,,CLR,0.00,VWS V14.01,2013-01-09 23:08:00,
2013-01-09 18:13:00,58.6,52.1,30.33,WNW,298,0.0,0.0,79,0.00,,CLR,0.00,VWS V14.01,2013-01-09 23:13:00,
2013-01-09 18:18:00,58.4,51.9,30.34,WNW,298,0.0,0.0,79,0.00,,CLR,0.00,VWS V14.01,2013-01-09 23:18:00,
2013-01-09 18:23:00,58.3,51.8,30.34,WNW,298,0.0,0.0,79,0.00,,CLR,0.00,VWS V14.01,2013-01-09 23:23:00,
2013-01-09 18:28:00,58.1,51.6,30.34,WNW,298,0.0,0.0,79,0.00,,CLR,0.00,VWS V14.01,2013-01-09 23:28:00,
2013-01-09 18:33:00,58.1,51.6,30.35,WNW,298,0.0,0.0,79,0.00,,CLR,0.00,VWS V14.01,2013-01-09 23:33:00,
2013-01-09 18:38:00,58.1,51.6,30.35,WNW,298,0.0,0.0,79,0.00,,CLR,0.00,VWS V14.01,2013-01-09 23:38:00,
2013-01-09 18:43:00,58.0,51.9,30.35,WNW,298,0.0,0.0,80,0.00,,CLR,0.00,VWS V14.01,2013-01-09 23:43:00,
2013-01-09 18:48:00,57.8,51.3,30.34,WNW,298,0.0,0.0,79,0.00,,CLR,0.00,VWS V14.01,2013-01-09 23:48:00,
2013-01-09 18:53:00,57.6,51.1,30.34,WNW,298,0.0,0.0,79,0.00,,CLR,0.00,VWS V14.01,2013-01-09 23:53:00,
2013-01-09 18:58:00,57.5,51.4,30.34,WNW,298,0.0,0.0,80,0.00,,CLR,0.00,VWS V14.01,2013-01-09 23:58:00,
2013-01-09 19:03:00,57.2,51.4,30.34,WNW,298,0.0,0.0,81,0.00,,CLR,0.00,VWS V14.01,2013-01-10 00:03:00,
2013-01-09 19:08:00,56.9,51.5,30.34,WNW,298,0.0,0.0,82,0.00,,CLR,0.00,VWS V14.01,2013-01-10 00:08:00,
2013-01-09 19:13:00,56.7,51.6,30.34,WNW,298,0.0,0.0,83,0.00,,CLR,0.00,VWS V14.01,2013-01-10 00:13:00,
2013-01-09 19:18:00,56.6,51.5,30.34,WNW,298,0.0,0.0,83,0.00,,FEW110,0.00,VWS V14.01,2013-01-10 00:18:00,
2013-01-09 19:23:00,56.6,51.5,30.34,WNW,298,0.0,0.0,83,0.00,,FEW110,0.00,VWS V14.01,2013-01-10 00:23:00,
2013-01-09 19:28:00,56.6,51.5,30.34,WNW,298,0.0,0.0,83,0.00,,FEW110,0.00,VWS V14.01,2013-01-10 00:28:00,
2013-01-09 19:33:00,56.6,51.5,30.33,WNW,298,0.0,0.0,83,0.00,,FEW110,0.00,VWS V14.01,2013-01-10 00:33:00,
2013-01-09 19:38:00,56.6,51.5,30.33,WNW,298,0.0,0.0,83,0.00,,FEW110,0.00,VWS V14.01,2013-01-10 00:38:00,
2013-01-09 19:43:00,56.6,51.5,30.33,WNW,298,0.0,0.0,83,0.00,,FEW110,0.00,VWS V14.01,2013-01-10 00:43:00,
2013-01-09 19:48:00,56.6,51.5,30.33,WNW,298,0.0,0.0,83,0.00,,FEW110,0.00,VWS V14.01,2013-01-10 00:48:00,
2013-01-09 19:53:00,56.6,51.5,30.33,WNW,298,0.0,0.0,83,0.00,,FEW110,0.00,VWS V14.01,2013-01-10 00:53:00,
2013-01-09 19:58:00,56.6,51.5,30.33,WNW,298,0.0,0.0,83,0.00,,FEW110,0.00,VWS V14.01,2013-01-10 00:58:00,
2013-01-09 20:03:00,56.7,51.6,30.33,WNW,298,0.0,0.0,83,0.00,,FEW110,0.00,VWS V14.01,2013-01-10 01:03:00,
2013-01-09 20:08:00,56.7,51.6,30.33,WNW,298,0.0,0.0,83,0.00,,FEW110,0.00,VWS V14.01,2013-01-10 01:08:00,
2013-01-09 20:13:00,56.6,51.5,30.33,WNW,298,0.0,0.0,83,0.00,,FEW110,0.00,VWS V14.01,2013-01-10 01:13:00,
2013-01-09 20:18:00,56.6,51.5,30.33,WNW,298,0.0,0.0,83,0.00,,FEW110,0.00,VWS V14.01,2013-01-10 01:18:00,
2013-01-09 20:23:00,56.5,51.4,30.33,WNW,298,0.0,0.0,83,0.00,,FEW110,0.00,VWS V14.01,2013-01-10 01:23:00,
2013-01-09 20:28:00,56.5,51.7,30.33,WNW,298,0.0,0.0,84,0.00,,FEW110,0.00,VWS V14.01,2013-01-10 01:28:00,
2013-01-09 20:33:00,56.3,51.5,30.33,WNW,298,0.0,0.0,84,0.00,,FEW110,0.00,VWS V14.01,2013-01-10 01:33:00,
2013-01-09 20:38:00,56.3,51.5,30.33,WNW,298,0.0,0.0,84,0.00,,FEW110,0.00,VWS V14.01,2013-01-10 01:38:00,
2013-01-09 20:43:00,56.3,51.5,30.33,WNW,298,0.0,0.0,84,0.00,,FEW110,0.00,VWS V14.01,2013-01-10 01:43:00,
2013-01-09 20:48:00,56.3,51.5,30.33,WNW,298,0.0,0.0,84,0.00,,FEW110,0.00,VWS V14.01,2013-01-10 01:48:00,
2013-01-09 20:53:00,56.5,51.7,30.33,WNW,298,0.0,0.0,84,0.00,,FEW110,0.00,VWS V14.01,2013-01-10 01:53:00,
2013-01-09 20:58:00,56.3,51.5,30.33,WNW,298,0.0,0.0,84,0.00,,FEW110,0.00,VWS V14.01,2013-01-10 01:58:00,
2013-01-09 21:03:00,56.0,51.6,30.34,WNW,298,0.0,0.0,85,0.00,,FEW110,0.00,VWS V14.01,2013-01-10 02:03:00,
2013-01-09 21:08:00,55.9,51.5,30.34,WNW,298,0.0,0.0,85,0.00,,FEW110,0.00,VWS V14.01,2013-01-10 02:08:00,
2013-01-09 21:13:00,55.7,51.6,30.34,WNW,298,0.0,0.0,86,0.00,,FEW110,0.00,VWS V14.01,2013-01-10 02:13:00,
2013-01-09 21:18:00,55.9,51.5,30.34,WNW,298,0.0,0.0,85,0.00,,FEW110,0.00,VWS V14.01,2013-01-10 02:18:00,
2013-01-09 21:23:00,55.9,51.5,30.34,WNW,298,0.0,0.0,85,0.00,,FEW110,0.00,VWS V14.01,2013-01-10 02:23:00,
2013-01-09 21:28:00,56.0,51.6,30.34,WNW,298,0.0,0.0,85,0.00,,FEW110,0.00,VWS V14.01,2013-01-10 02:28:00,
2013-01-09 21:33:00,56.0,51.6,30.34,WNW,298,0.0,0.0,85,0.00,,FEW110,0.00,VWS V14.01,2013-01-10 02:33:00,
2013-01-09 21:38:00,56.2,51.8,30.34,WNW,298,0.0,0.0,85,0.00,,FEW110,0.00,VWS V14.01,2013-01-10 02:38:00,
2013-01-09 21:43:00,56.2,51.8,30.34,WNW,298,0.0,0.0,85,0.00,,FEW110,0.00,VWS V14.01,2013-01-10 02:43:00,
2013-01-09 21:48:00,56.0,51.9,30.34,WNW,298,0.0,0.0,86,0.00,,CLR,0.00,VWS V14.01,2013-01-10 02:48:00,
2013-01-09 21:53:00,55.9,51.8,30.34,WNW,298,0.0,0.0,86,0.00,,CLR,0.00,VWS V14.01,2013-01-10 02:53:00,
2013-01-09 21:58:00,55.7,51.6,30.34,WNW,298,0.0,0.0,86,0.00,,CLR,0.00,VWS V14.01,2013-01-10 02:58:00,
2013-01-09 22:03:00,55.4,51.6,30.35,WNW,298,0.0,0.0,87,0.00,,CLR,0.00,VWS V14.01,2013-01-10 03:03:00,
2013-01-09 22:08:00,55.3,51.5,30.35,WNW,298,0.0,0.0,87,0.00,,CLR,0.00,VWS V14.01,2013-01-10 03:08:00,
2013-01-09 22:13:00,55.3,51.5,30.35,WNW,298,0.0,0.0,87,0.00,,CLR,0.00,VWS V14.01,2013-01-10 03:13:00,
2013-01-09 22:18:00,55.3,51.5,30.35,WNW,298,0.0,0.0,87,0.00,,CLR,0.00,VWS V14.01,2013-01-10 03:18:00,
2013-01-09 22:23:00,55.3,51.5,30.35,WNW,298,0.0,0.0,87,0.00,,CLR,0.00,VWS V14.01,2013-01-10 03:23:00,
2013-01-09 22:28:00,55.3,51.5,30.35,WNW,298,0.0,0.0,87,0.00,,CLR,0.00,VWS V14.01,2013-01-10 03:28:00,
2013-01-09 22:33:00,55.4,51.6,30.36,WNW,298,0.0,0.0,87,0.00,,CLR,0.00,VWS V14.01,2013-01-10 03:33:00,
2013-01-09 22:38:00,55.4,51.3,30.36,WNW,298,0.0,0.0,86,0.00,,CLR,0.00,VWS V14.01,2013-01-10 03:38:00,
2013-01-09 22:43:00,55.6,51.5,30.36,WNW,298,0.0,0.0,86,0.00,,CLR,0.00,VWS V14.01,2013-01-10 03:43:00,
2013-01-09 22:48:00,55.6,51.5,30.36,WNW,298,0.0,0.0,86,0.00,,SCT110,0.00,VWS V14.01,2013-01-10 03:48:00,
2013-01-09 22:53:00,55.6,51.5,30.36,WNW,298,0.0,0.0,86,0.00,,SCT110,0.00,VWS V14.01,2013-01-10 03:53:00,
2013-01-09 22:58:00,55.7,51.6,30.36,WNW,298,0.0,0.0,86,0.00,,SCT110,0.00,VWS V14.01,2013-01-10 03:58:00,
2013-01-09 23:03:00,55.7,51.6,30.36,WNW,298,0.0,0.0,86,0.00,,SCT110,0.00,VWS V14.01,2013-01-10 04:03:00,
2013-01-09 23:07:00,55.9,51.5,30.36,WNW,298,0.0,0.0,85,0.00,,SCT110,0.00,VWS V14.01,2013-01-10 04:07:00,
2013-01-09 23:12:00,55.9,51.5,30.36,WNW,298,0.0,0.0,85,0.00,,SCT110,0.00,VWS V14.01,2013-01-10 04:12:00,
2013-01-09 23:17:00,55.9,51.5,30.37,WNW,298,0.0,0.0,85,0.00,,SCT110,0.00,VWS V14.01,2013-01-10 04:17:00,
2013-01-09 23:22:00,56.0,51.6,30.37,WNW,298,0.0,0.0,85,0.00,,SCT110,0.00,VWS V14.01,2013-01-10 04:22:00,
2013-01-09 23:27:00,56.0,51.6,30.37,WNW,298,0.0,0.0,85,0.00,,SCT110,0.00,VWS V14.01,2013-01-10 04:27:00,
2013-01-09 23:32:00,56.0,51.6,30.37,WNW,298,0.0,0.0,85,0.00,,SCT110,0.00,VWS V14.01,2013-01-10 04:32:00,
2013-01-09 23:37:00,55.9,51.8,30.37,WNW,298,0.0,0.0,86,0.00,,SCT110,0.00,VWS V14.01,2013-01-10 04:37:00,
2013-01-09 23:42:00,55.7,51.3,30.37,WNW,298,0.0,0.0,85,0.00,,SCT110,0.00,VWS V14.01,2013-01-10 04:42:00,
2013-01-09 23:47:00,55.4,51.0,30.36,WNW,298,0.0,0.0,85,0.00,,FEW120,0.00,VWS V14.01,2013-01-10 04:47:00,
2013-01-09 23:52:00,55.1,51.3,30.36,WNW,298,0.0,0.0,87,0.00,,FEW120,0.00,VWS V14.01,2013-01-10 04:52:00,
2013-01-09 23:57:00,55.1,51.3,30.36,WNW,298,0.0,0.0,87,0.00,,FEW120,0.00,VWS V14.01,2013-01-10 04:57:00,